Weather History for Limon, CO

Change the Weather History Date:

Monday, December 31, 2012

  Actual Average Record
Temperature  
Mean Temperature 10 °F -  
Max Temperature 21 °F - 63 °F (1996)
Min Temperature -2 °F - -2 °F (2010)
Degree Days  
Heating Degree Days 55    
Month to date heating degree days 1290  
Cooling Degree Days 0    
Month to date cooling degree days 0  
Moisture  
Dew Point 10 °F    
Average Humidity 89    
Maximum Humidity 100    
Minimum Humidity 80    
Precipitation  
Precipitation T in - 0.00 in (2014)
Month to date precipitation 0.32  
Year to date precipitation 9.83  
Sea Level Pressure  
Sea Level Pressure 30.07 in    
Wind  
Wind Speed 4 mph (North)    
Max Wind Speed 12 mph    
Max Gust Speed 13 mph    
Visibility 10 miles    
Events Snow    
T = Trace of Precipitation, MM = Missing Value Source: NWS Daily Summary

Daily Weather History Graph

Daily Weather History Graph

Search for Another Location

Airport:

Trip Planner

Search our weather history database for the weather conditions in past years. The results will help you decide how hot, cold, wet, or windy it might be!

Date:

Astronomy

Dec. 31, 2012 Rise Set
Actual Time 7:14 AM MST 4:41 PM MST
Civil Twilight 6:44 AM MST 5:11 PM MST
Nautical Twilight 6:10 AM MST 5:45 PM MST
Astronomical Twilight 5:38 AM MST 6:17 PM MST
Moon 8:13 PM MST (12/31) 8:58 AM MST (12/31)
Length of Visible Light 10h 27m
Length of Day
9h 27m
Waning Gibbous, 90% of the Moon is Illuminated
Dec 31
Waning Gibbous
Jan 4
Last Quarter
Jan 11
New
Jan 18
First Quarter
Jan 26
Full

Hourly Weather History & Observations

Time (MST) Temp. Windchill Dew Point Humidity Pressure Visibility Wind Dir Wind Speed Gust Speed Precip Events Conditions
12:55 AM 1.9 °F -12.9 °F -0.9 °F 88% 30.10 in 10.0 mi North 9.2 mph - N/A   Mostly Cloudy
1:55 AM 9.0 °F - 5.0 °F 84% 30.09 in 10.0 mi Calm Calm - N/A   Mostly Cloudy
2:55 AM 9.0 °F - 5.0 °F 84% 30.08 in 10.0 mi Calm Calm - N/A   Overcast
3:55 AM 14.0 °F - 10.0 °F 84% 30.07 in 10.0 mi Calm Calm - N/A   Overcast
4:55 AM 14.0 °F 6.5 °F 10.0 °F 84% 30.06 in 10.0 mi NE 4.6 mph - N/A   Overcast
5:43 AM 12.2 °F - 12.2 °F 100% 29.92 in 10.0 mi Calm Calm - N/A   Overcast
5:52 AM 12.2 °F - 12.2 °F 100% 29.91 in 10.0 mi Calm Calm - N/A   Overcast
5:55 AM 12.9 °F - 12.9 °F 100% 30.06 in 10.0 mi Calm Calm - N/A   Overcast
6:55 AM 14.0 °F - 12.9 °F 95% 30.08 in 10.0 mi Calm Calm - N/A   Overcast
7:55 AM 14.0 °F 5.1 °F 12.9 °F 95% 30.09 in 10.0 mi North 5.8 mph - N/A   Overcast
8:55 AM 14.0 °F 6.5 °F 12.9 °F 95% 30.11 in 10.0 mi North 4.6 mph - N/A   Overcast
9:16 AM 15.8 °F 10.2 °F 12.2 °F 86% 29.95 in 10.0 mi North 3.5 mph - N/A   Overcast
9:55 AM 16.0 °F 4.4 °F 14.0 °F 92% 30.15 in 10.0 mi NE 9.2 mph - N/A   Mostly Cloudy
10:28 AM 15.8 °F 6.1 °F 14.0 °F 93% 29.96 in 10.0 mi NNE 6.9 mph - N/A   Scattered Clouds
10:55 AM 16.0 °F 6.3 °F 12.9 °F 88% 30.15 in 10.0 mi NNE 6.9 mph - N/A   Scattered Clouds
11:16 AM 15.8 °F 8.6 °F 12.2 °F 86% 29.95 in 10.0 mi North 4.6 mph - N/A   Mostly Cloudy
11:55 AM 18.0 °F 6.9 °F 12.9 °F 81% 30.13 in 10.0 mi NNE 9.2 mph - N/A   Mostly Cloudy
12:06 PM 19.4 °F 12.8 °F 14.0 °F 80% 29.93 in 10.0 mi NE 4.6 mph - N/A   Mostly Cloudy
12:55 PM 19.0 °F 7.5 °F 14.0 °F 81% 30.10 in 10.0 mi North 10.4 mph - N/A   Overcast
1:55 PM 19.9 °F 9.3 °F 15.1 °F 81% 30.07 in 10.0 mi North 9.2 mph - N/A   Overcast
2:18 PM 19.4 °F 9.5 °F 15.8 °F 86% 29.92 in 10.0 mi North 8.1 mph - 0.00 in Snow Light Snow
2:55 PM 19.9 °F 10.1 °F 15.1 °F 81% 30.09 in 9.0 mi North 8.1 mph - 0.00 in Snow Light Snow
3:55 PM 19.0 °F 8.2 °F 14.0 °F 81% 30.08 in 10.0 mi North 9.2 mph - N/A   Overcast
4:55 PM 14.0 °F 3.9 °F 10.9 °F 88% 30.11 in 10.0 mi NNW 6.9 mph - N/A   Mostly Cloudy
5:55 PM 9.0 °F - 6.1 °F 88% 30.15 in 10.0 mi Calm Calm - N/A   Mostly Cloudy
6:55 PM 7.0 °F - 5.0 °F 92% 30.17 in 10.0 mi Calm Calm - N/A   Mostly Cloudy
8:55 PM 7.0 °F - 5.0 °F 92% 30.20 in 10.0 mi Calm Calm - N/A   Mostly Cloudy
9:14 PM 6.8 °F -0.1 °F 5.0 °F 92% 30.01 in 10.0 mi West 3.5 mph - N/A   Overcast
9:26 PM 6.8 °F - 5.0 °F 92% 30.01 in 10.0 mi Calm Calm - N/A   Overcast
9:55 PM 9.0 °F 2.4 °F 7.0 °F 92% 30.21 in 10.0 mi NW 3.5 mph - N/A   Mostly Cloudy
10:12 PM 8.6 °F - 6.8 °F 92% 30.02 in 10.0 mi Calm Calm - N/A   Overcast
10:55 PM 6.1 °F -0.9 °F 3.9 °F 91% 30.22 in 10.0 mi NNW 3.5 mph - 0.00 in   Overcast
11:02 PM 5.0 °F - 3.2 °F 92% 30.02 in 10.0 mi Calm Calm - N/A   Overcast
11:55 PM -2.0 °F - -2.9 °F 96% 30.24 in 10.0 mi Calm Calm - N/A   Clear